Find Starlink 1929

NORAD ID: 46788 Int'l Des: 2020-074 Owner: SPXS Country: US Constellation: starlink decayed
LEOCIRCULAR
Vis

Historical Track — 31. Jan. 2025

3D-Globus wird geladen...

Über Starlink 1929

Beschreibung wird geladen...

Höhenverlauf

Loading altitude history...

Zweizeiliger Elementsatz

1 46788U 20074BB 25031.57417929 .45515843 12194-4 62128-3 0 9999
2 46788 53.0145 261.9859 0024138 155.8430 290.3215 16.46739593236654
Epoch: 31. Jan. 2025 • Age: 10549 hours

Aktueller Status

Position data unavailable
Startdatum 24. Okt. 2020
Alter 5.4 years
Verglühungsdatum 31. Jan. 2025
Typ internet

Technische Details

Klassifizierung Payload
Masse 260.00 kg
Trockenmasse 248.00 kg
Gesamtmasse 260.00 kg
Länge 0.20 m
Durchmesser 2.80 m
Spannweite 9.00 m
Form Box + pan
Hersteller SPXS
Bus-Typ Starlink
Phasenstatus Unknown Transfer Status
Besitzer/Staat SPXS/US

Most Searched